STARLINK-32442, 61729

Orbit data source: Space-Track

STARLINK-32442, 61729 is a payload satellite owned by SpaceX/Seattle (US) in LEO that was launched on Wed, 30 Oct 2024 UTC via an FALCON 9 launch vehicle from the Air Force Eastern Test Range (AFETR). Payload-class satellites include a variety of spacecraft equipped with specific instruments for various scientific and technological missions. These include communications satellites like Starlink; space stations such as the ISS; scientific satellites like the Hubble; Earth observation satellites from companies like Planet Labs, Umbra, and HawkEye 360; GPS; miniature CubeSats for education and research; and military/defense satellites.

Loading next visibility...
Identifier
61729, 2024-196Y
Orbit
LEO
Country
Flag of USUS
Related business
Manufacturer
SpaceX/Seattle
Mission
Operational Commercial Communications
Bus & Motor
STARLINK V2M, Unknown motor
Mass
730 kg wet, ~700 kg dry
Launch date (UTC)
2024-10-30 (1 year ago)
Launch vehicle
FALCON 9
Launch site
Air Force Eastern Test Range (AFETR)
Object type
Payload
Rocket body
Debris
Shape & HBR
Box + 2 Pan, 17.7 m
Radar Cross Section
33.884 m², Large (>1 m²)

Expand to show TLE details & history
Last TLE update: 8 hours ago

TLE from 8 hours ago
0 STARLINK-32442
1 61729U 24196Y   25293.56636144  .00005544  00000-0  19918-3 0  9992
2 61729  53.1594  32.1540 0001278 101.4301 258.6843 15.30198284 55701
Epoch: 2025-10-20T13:35Z
TLE epoch observation values (Epoch: 2025-10-20T13:35:33.628Z)
Latitude
-0.00004°
Longitude
158.99702°
Altitude
476.292 km
Speed
7.629 km/s
True Right ascension
02h 08m 36s
True Declination
0° 00' 00"
Sunlit
Object was in full shadow at epoch
Visualization orbit readout
Latitude
Unknown
Longitude
Unknown
Altitude
Unknown
Speed
Unknown
Apparent Right ascension
Unknown
Apparent Declination
Unknown
Sunlit
N/A
Visualization observer readout
Local Sidereal Time
16:41:21
Azimuth
Unknown
Elevation
Unknown
Doppler factor
Unknown
Orbital elements
Apogee altitude
476.353 km
Perigee altitude
474.601 km
Semi-major axis
6,853.614 km
Eccentricity
0.00013
Inclination
53.1594°
RAAN
32.154°
Arg. of periapsis
101.4301°
True anomaly
258.66994°
Mean anomaly
258.6843°
Eccentric anomaly
258.67712°
Mean motion
3.82528 °/min
Orbital period
94.11 mins
BSTAR
0.00019918
Loading maneuver chart data...
Computing Atmospheric mass density...
Loading historical data...
Loading historical data...
Loading historical data...
Loading historical data...
Loading historical data...
Loading historical data...
Loading historical data...

Documentation

Showing up to 5 results
|